{"data":{"norad_id":62443,"epoch":"2026-09-21T20:17:46.669056Z","epoch_age_seconds":58263,"freshness":"FRESH","line1":"1 62443U 24251M   26264.84567904  .00024419  00000+0  73141-3 0  9994","line2":"2 62443  53.1598 143.2722 0001225 107.1840 252.9297 15.34403523 97837","mean_motion":15.34403523,"eccentricity":0.0001225,"inclination_deg":53.1598,"raan_deg":143.2722,"arg_perigee_deg":107.184,"mean_anomaly_deg":252.9297,"bstar":0.00073141,"rev_number":9783,"period_min":93.8475426063,"perigee_km":461.85476748198,"apogee_km":463.53077077542,"semimajor_km":6840.8297691287,"source":"CELESTRAK","updated_at":"2026-09-22T09:00:49.582168Z"}}